Wind_Speed
27 27 27 28 28 28 27 28 28 28 28 28 29 29 29 29 29 29 29 28 28 28 28 29 28 27 29 32 36 37 37 34 33 32 31 29 28 26 25 25 27 28 30 32 32 31 30 29 26 24 23 20 19 20 21 23 24 22 19 17 14 13 13 13 14 15 16 16 15
26 26 27 27 27 27 27 27 27 27 28 28 29 30 30 30 30 30 30 29 29 28 27 27 26 26 27 30 34 36 36 34 34 35 35 33 31 29 28 27 27 28 29 30 29 27 26 26 25 25 24 22 22 22 23 23 22 19 17 15 14 14 14 14 16 17 17 16 15
25 25 26 26 26 26 26 26 27 28 29 29 30 30 30 30 30 30 30 29 28 27 26 26 25 25 26 28 30 31 32 32 33 34 34 33 32 31 30 29 28 28 28 27 26 24 23 22 23 25 25 25 26 27 27 26 23 20 18 16 15 14 15 16 18 18 18 16 14
23 24 25 26 27 27 27 27 28 29 30 30 30 29 29 30 29 29 28 27 26 26 25 25 25 25 26 27 28 29 30 32 32 32 32 32 32 32 31 30 29 28 27 26 24 22 21 20 22 24 26 28 30 31 30 29 26 22 19 17 16 16 17 18 19 18 17 15 13
22 23 25 27 28 29 29 29 29 30 30 29 29 28 28 28 28 27 26 25 25 25 25 25 25 25 26 27 28 29 31 32 32 31 31 31 31 31 31 31 30 30 28 25 23 21 20 20 21 24 27 30 32 32 31 29 26 22 19 17 17 18 19 19 19 17 16 14 12
22 23 25 26 28 29 30 30 30 30 30 29 28 27 27 27 26 26 25 25 25 25 24 24 24 26 27 28 29 30 31 31 31 31 31 30 30 31 31 31 31 30 29 26 23 22 21 21 22 24 28 31 32 31 29 27 24 22 19 18 19 20 20 20 18 16 14 12 11
22 23 24 26 27 29 30 30 31 30 29 28 27 28 28 27 26 26 25 25 25 24 24 24 24 26 28 28 29 30 31 31 31 31 30 30 30 30 30 30 30 30 29 27 25 23 22 22 24 26 30 32 31 29 26 24 23 22 21 21 21 21 20 19 16 14 13 11 10
21 23 25 26 27 28 29 30 30 30 29 28 28 29 29 28 27 26 25 24 25 25 24 24 25 26 28 29 30 30 31 31 31 30 30 30 30 30 30 30 29 29 28 27 26 25 24 25 27 29 32 33 30 27 24 23 23 23 24 24 23 21 19 17 15 13 12 11 10
20 22 24 26 27 27 28 30 30 30 29 29 29 29 29 27 26 26 25 25 25 25 25 25 25 26 28 29 30 30 30 30 30 30 30 30 30 30 30 29 28 28 27 26 26 26 26 28 30 31 32 32 29 26 24 24 25 25 25 24 22 20 17 15 13 12 11 10 9
18 21 23 26 27 27 28 29 29 29 29 29 29 28 27 26 25 26 26 25 25 25 25 25 26 27 27 28 29 29 29 30 30 30 30 30 30 30 30 29 29 28 27 26 26 27 28 30 31 31 30 29 28 27 27 27 27 26 25 23 21 19 17 15 13 12 11 9 8
17 19 22 24 26 26 27 27 27 27 28 28 27 26 25 24 24 25 26 26 25 25 26 26 26 27 28 28 28 28 29 29 29 29 29 30 30 30 30 30 30 29 28 27 27 28 28 30 29 29 28 27 28 28 28 27 26 25 23 21 20 18 17 15 13 11 10 8 7
16 17 20 22 24 25 25 25 26 26 25 25 24 23 23 23 24 25 25 25 25 26 26 26 27 27 28 28 27 27 27 28 28 28 28 29 29 29 29 30 30 29 29 28 28 28 28 28 28 28 28 28 28 28 27 25 24 23 22 20 19 17 15 13 12 10 9 8 7
15 16 18 20 22 23 23 24 24 24 23 23 22 21 22 22 23 24 25 25 25 26 26 26 26 27 27 27 27 26 26 27 27 27 27 27 28 29 29 29 30 29 29 29 28 28 27 27 27 28 29 28 28 26 24 23 22 22 21 19 18 16 14 12 11 10 10 9 8
15 15 17 18 20 20 21 22 22 22 21 20 20 20 21 22 23 24 24 25 26 25 25 25 25 26 26 26 26 26 25 26 26 25 25 26 27 28 29 29 29 29 28 28 27 27 26 27 27 28 28 28 26 24 23 22 21 20 19 18 16 15 13 12 11 11 10 9 9
13 14 15 16 16 17 18 19 19 19 18 18 18 19 20 21 22 23 24 25 25 25 25 25 25 25 24 24 25 24 24 24 24 25 25 25 26 27 28 27 27 27 27 26 26 26 26 26 27 28 28 27 25 24 22 20 19 18 17 16 15 14 13 12 11 11 10 9 9
11 11 11 12 13 14 15 16 16 16 16 17 17 18 19 21 21 22 23 24 24 24 24 25 25 24 23 23 23 23 23 24 24 25 25 25 26 27 27 26 26 26 26 26 26 26 26 27 27 27 26 25 24 23 21 19 17 16 15 14 14 14 13 12 11 10 9 9 8
10 9 9 10 11 12 13 14 14 14 15 16 17 18 19 20 20 21 22 23 24 24 24 24 24 24 23 23 23 23 24 24 25 25 26 26 26 26 26 26 26 26 27 27 27 26 27 27 26 25 24 24 23 21 20 18 17 16 16 15 14 13 12 11 10 9 8 8 8
10 9 8 8 9 11 12 13 13 13 14 16 17 18 19 19 20 20 21 22 23 24 24 24 24 24 24 24 24 23 24 24 25 25 25 25 26 26 25 25 26 27 27 27 27 27 27 26 25 24 23 22 21 20 19 19 18 17 16 15 13 12 10 9 8 7 7 6 6
8 8 8 8 9 10 12 12 13 14 15 16 17 17 18 19 20 21 21 22 23 24 24 24 24 23 24 24 23 23 23 23 24 24 24 24 24 25 25 25 26 26 27 26 26 26 26 25 24 23 22 22 21 20 19 19 18 16 15 13 11 9 8 6 6 5 5 5 5
7 7 8 8 10 11 12 12 13 14 15 16 17 17 18 19 20 21 21 22 22 23 24 24 23 23 23 23 23 22 21 22 22 22 22 23 23 24 24 25 26 26 26 26 26 25 25 24 24 23 23 22 21 20 19 17 16 14 12 10 8 7 6 5 5 4 4 4 5
5 6 7 8 10 11 12 13 13 14 14 16 17 18 18 19 20 20 21 21 22 22 23 23 23 23 23 22 22 21 20 20 21 21 22 22 23 23 24 25 26 26 26 26 26 25 25 24 24 23 23 22 20 19 17 15 13 12 10 9 7 7 6 6 5 5 5 5 5
4 6 7 9 10 11 12 13 13 14 14 15 16 17 18 19 20 20 21 21 21 21 21 21 22 22 22 22 21 21 20 20 21 21 22 23 23 23 24 25 26 26 26 26 26 25 25 24 24 23 21 20 18 16 14 13 12 11 10 9 8 7 7 6 6 5 5 5 6
5 6 8 9 10 11 12 13 13 14 14 15 16 16 18 18 19 20 20 20 20 20 21 21 21 21 21 21 21 21 22 22 22 23 23 24 24 24 25 26 26 26 26 26 26 25 25 24 22 21 20 18 16 15 13 12 12 11 10 10 9 7 7 6 5 5 6 7 8
7 8 9 10 11 12 13 13 14 14 15 15 15 16 17 18 19 20 20 20 20 20 21 21 21 21 21 21 21 22 23 24 24 24 25 25 25 26 26 26 26 26 26 25 25 25 24 23 21 20 18 17 16 15 13 12 12 11 10 9 8 7 6 5 6 6 8 9 9
9 10 11 12 13 13 14 14 15 15 15 16 16 17 18 18 19 20 20 21 21 21 21 22 21 22 22 22 23 24 25 26 26 26 26 26 26 27 26 26 26 25 25 24 23 22 22 21 20 19 18 17 16 14 13 12 11 9 8 7 6 6 5 5 6 7 8 9 9
12 13 14 14 14 15 15 16 16 16 17 17 18 18 19 19 20 20 21 21 21 21 22 22 22 22 23 24 24 25 26 26 27 27 28 27 27 26 26 25 25 24 23 21 20 20 19 18 18 17 16 16 15 13 12 11 9 8 7 6 6 6 6 6 6 7 7 8 8
15 16 16 16 17 17 17 17 18 18 18 19 19 19 20 20 20 21 22 22 22 22 22 22 22 23 24 25 25 26 26 27 27 27 27 27 27 26 26 25 24 23 21 20 19 18 17 16 16 15 14 14 13 12 10 9 8 6 6 5 5 5 5 5 5 5 5 6 7
18 18 19 19 19 20 19 19 19 19 19 20 20 20 21 21 21 22 22 22 22 22 22 23 23 24 24 25 26 27 27 27 27 27 26 26 26 26 25 24 23 22 20 19 18 17 16 15 14 13 13 12 11 9 8 7 6 5 5 4 4 3 3 3 4 4 5 5 4
20 20 21 21 21 21 20 20 20 20 21 21 21 22 22 22 22 22 22 22 22 22 23 23 23 24 25 26 26 27 27 27 26 26 26 26 26 25 25 24 23 21 19 18 17 16 15 14 13 12 11 10 9 8 7 6 4 3 2 1 1 2 3 4 4 3 2 2 2
21 22 22 22 22 22 22 21 21 22 22 22 22 22 22 22 22 22 21 22 22 22 23 24 24 25 26 27 27 27 27 26 26 26 27 27 26 25 24 23 22 20 19 17 17 16 15 14 12 11 9 8 7 6 5 4 2 1 2 3 4 4 4 4 2 1 1 2 3
21 22 23 23 23 23 22 22 22 23 23 23 23 23 23 22 22 21 22 22 23 23 24 25 26 27 27 27 27 27 27 27 27 27 27 27 25 24 23 22 21 19 18 17 17 16 15 13 11 9 8 7 5 4 3 3 3 4 5 5 5 5 4 3 2 3 3 3 3
21 22 23 23 23 23 23 22 23 23 23 23 23 23 23 23 23 23 23 23 23 23 24 25 26 27 27 27 27 28 28 28 27 27 27 26 25 24 23 21 19 18 17 17 16 16 14 12 9 8 7 5 5 4 5 5 6 7 7 6 5 4 3 3 3 3 3 2 1
20 21 22 23 24 23 22 23 23 23 23 23 23 24 24 24 24 24 23 23 23 24 25 25 26 27 27 28 28 28 28 28 27 27 26 26 25 24 23 21 19 17 16 16 16 14 12 10 8 7 6 6 6 7 7 8 8 8 7 6 5 5 4 4 3 3 1 0 1
18 20 21 22 22 22 22 23 23 23 23 24 24 24 24 24 24 24 23 23 23 24 24 25 26 27 27 28 28 28 28 27 26 26 25 25 24 23 22 20 18 16 15 15 14 13 11 9 8 8 8 8 8 9 9 9 8 7 6 6 6 5 5 4 2 1 1 2 2
18 19 20 20 21 21 22 22 22 23 24 24 24 24 24 24 24 24 23 23 23 24 24 24 25 26 26 27 27 27 27 26 25 25 24 24 23 22 20 19 17 15 14 13 12 11 9 8 8 9 9 10 10 10 10 9 7 7 6 7 6 5 4 3 2 2 2 3 3
18 19 20 20 20 20 21 21 22 22 23 24 24 23 23 23 23 23 23 23 24 24 24 24 24 25 25 25 25 25 25 24 24 23 22 21 20 19 18 17 15 14 12 12 11 10 8 8 9 9 10 11 11 11 9 8 7 7 7 6 5 4 3 2 3 3 3 3 3
18 19 20 20 20 20 20 20 21 22 22 23 23 23 23 23 23 23 23 24 24 24 24 24 24 23 23 23 23 22 22 22 21 20 19 17 17 16 16 15 14 13 12 11 10 9 8 8 9 10 11 11 11 10 9 8 7 7 6 5 4 3 3 3 3 4 4 4 4
18 19 19 20 20 20 20 20 21 21 21 22 22 22 23 23 22 22 22 23 24 24 24 23 23 22 22 22 22 21 20 19 17 16 15 14 14 14 14 14 13 12 11 10 10 9 8 8 9 10 10 11 11 10 9 7 7 6 5 4 3 3 3 4 4 5 5 5 5
18 19 20 20 20 20 20 20 21 21 21 22 22 22 22 22 22 21 22 22 24 24 24 23 22 22 21 21 20 19 17 15 14 13 13 13 13 13 13 13 13 12 10 9 9 9 9 8 8 8 9 10 10 10 8 7 6 5 4 4 4 4 4 5 6 6 6 7 6
19 19 20 20 21 21 21 21 21 21 22 22 22 22 22 21 21 21 22 22 23 23 23 23 22 21 20 19 19 18 16 15 14 13 13 13 13 13 12 12 12 12 11 10 9 9 9 9 7 7 7 8 9 9 8 7 6 6 5 5 5 5 5 6 7 7 7 7 8
19 20 20 20 21 21 21 22 22 22 22 22 22 22 21 21 21 22 22 22 22 22 22 22 21 20 19 18 17 17 16 15 14 13 13 13 13 12 12 12 11 11 11 10 9 9 9 8 6 5 5 7 8 8 8 7 6 6 5 5 5 5 5 6 6 6 7 7 8
Wind_Direction
226 223 221 220 219 218 218 219 221 221 219 217 217 217 216 217 217 218 217 216 215 216 216 216 215 218 221 220 221 223 223 221 219 219 219 218 215 213 211 209 207 207 205 202 202 205 211 215 220 228 230 220 207 202 204 208 209 208 207 207 206 204 202 202 206 208 208 207 206
228 225 223 221 219 218 218 219 220 220 220 220 219 219 218 218 218 220 220 220 220 219 218 216 215 214 215 217 218 218 216 213 212 214 215 215 213 212 211 209 207 205 203 200 201 204 209 212 218 225 224 210 196 193 197 201 202 204 205 208 207 205 204 205 207 206 204 201 200
232 227 224 221 219 217 217 218 219 220 221 221 221 221 220 220 221 222 222 222 221 220 217 215 213 211 211 212 212 210 207 206 208 210 211 210 210 209 209 208 205 203 201 200 202 206 210 213 219 221 216 202 192 190 193 198 203 205 206 208 207 206 206 206 204 201 198 195 193
234 228 224 221 220 219 218 219 221 222 222 223 223 222 221 222 222 223 223 222 221 218 215 213 210 208 206 206 204 202 202 204 206 208 208 207 206 206 206 205 203 200 199 200 204 208 212 215 219 218 211 199 192 192 196 201 205 206 205 205 206 207 206 203 199 195 191 188 186
238 230 225 222 222 222 221 222 223 223 223 224 222 221 222 222 222 222 222 221 219 216 214 212 207 203 201 200 199 199 200 203 205 206 206 205 204 204 203 202 201 199 198 198 202 207 212 215 217 215 209 200 195 195 198 202 203 201 199 198 201 203 202 197 192 188 186 183 179
244 234 227 224 223 223 223 224 225 225 224 223 221 220 220 221 221 220 219 218 216 214 211 208 204 201 198 197 196 197 199 201 203 205 205 204 203 202 201 200 199 197 196 197 201 206 211 213 213 210 205 199 196 197 199 199 197 193 190 190 194 196 194 190 186 183 180 177 172
253 241 231 226 224 223 224 225 226 225 224 223 221 220 220 219 219 217 216 215 213 209 205 202 200 198 197 195 195 196 198 199 201 203 204 203 202 200 198 197 196 195 195 198 201 205 209 211 208 204 200 196 195 196 196 194 189 184 182 184 187 188 186 183 180 178 175 172 167
262 248 238 231 227 225 225 225 224 223 221 221 221 221 221 220 218 216 215 212 209 204 200 198 197 196 196 194 194 195 197 198 199 201 202 202 200 197 195 193 192 193 195 199 202 204 206 206 203 199 195 193 192 191 189 185 180 177 177 179 180 180 179 178 175 174 172 171 168
267 254 243 235 230 228 227 226 223 221 220 220 222 223 222 219 217 214 211 207 205 201 198 196 195 195 195 194 194 195 196 197 198 198 199 199 197 194 191 190 190 191 195 199 201 203 203 201 197 193 191 189 185 182 178 176 174 174 175 175 174 173 173 172 170 170 171 171 170
273 258 246 238 233 230 228 225 223 222 221 221 223 223 220 217 214 212 209 205 203 199 195 194 194 193 192 192 193 194 196 196 197 196 196 195 194 192 191 190 191 192 195 198 200 200 199 195 190 187 184 181 176 172 170 171 172 172 171 170 170 168 166 165 167 169 172 174 176
281 265 251 241 235 231 228 224 222 221 221 221 222 221 218 214 211 209 207 204 199 195 193 194 193 191 190 190 192 193 194 194 195 194 193 192 192 193 194 194 194 194 195 197 197 196 193 189 184 179 174 171 168 166 167 169 170 169 167 166 166 165 164 164 167 170 172 176 180
288 270 256 245 238 232 227 223 221 220 220 220 220 219 216 212 209 207 205 201 195 192 192 193 191 189 188 189 189 190 191 192 192 191 190 190 192 194 195 195 195 195 196 197 194 190 186 182 177 171 166 164 164 164 165 166 166 165 163 163 165 166 166 165 166 166 165 166 172
291 272 257 246 238 231 226 222 220 219 218 218 217 215 212 209 208 205 202 197 193 191 190 190 189 187 187 187 187 188 188 189 189 188 188 189 191 192 193 193 193 194 194 193 189 184 179 176 171 166 163 162 162 162 163 163 163 161 161 161 164 166 165 163 159 158 159 163 170
288 270 255 245 236 229 223 219 217 216 215 215 213 210 207 205 204 202 199 195 191 189 187 186 185 185 186 187 187 187 187 187 186 186 185 186 188 188 188 189 189 190 188 185 180 176 172 170 167 165 163 161 160 160 160 162 162 162 160 160 161 162 162 159 159 161 166 173 179
283 267 253 242 232 224 218 214 212 211 210 208 206 204 202 199 198 197 195 192 188 186 185 183 182 182 183 185 186 186 185 184 183 183 183 183 184 185 184 184 184 183 180 175 171 168 167 166 165 164 163 161 159 159 160 161 162 161 159 159 160 160 160 160 164 171 178 183 187
286 268 252 237 225 216 210 206 204 203 202 200 198 197 194 193 192 191 189 186 184 182 180 179 178 178 179 181 183 184 183 182 181 181 181 181 182 182 181 180 178 175 171 166 164 164 165 165 165 164 163 161 160 159 158 157 156 155 156 157 159 160 162 167 173 179 185 190 193
296 277 255 233 219 208 201 198 197 195 193 191 190 189 187 186 184 183 182 180 178 176 175 174 174 174 175 177 180 181 180 179 179 180 181 181 180 179 177 174 171 168 165 163 162 162 163 163 164 163 163 161 158 155 152 151 151 152 155 158 161 164 169 175 180 186 191 197 203
289 274 253 231 215 202 194 191 188 186 183 182 181 181 181 179 176 175 175 176 175 173 171 171 172 173 173 174 175 176 176 176 178 179 180 179 177 175 172 168 166 164 163 162 162 162 161 161 161 161 159 155 151 148 147 149 150 153 156 159 164 169 175 180 186 192 198 206 215
265 251 236 222 205 195 188 185 180 176 174 173 173 173 173 173 171 170 170 171 173 172 171 169 170 171 171 171 170 171 173 175 176 176 176 174 172 169 165 162 161 161 161 162 162 161 160 159 159 156 152 147 145 145 148 151 153 155 157 161 165 170 176 182 187 194 201 209 218
239 223 211 204 195 189 184 179 176 174 171 169 168 167 166 167 168 167 166 166 169 171 171 169 167 166 166 166 166 167 169 171 171 170 168 166 163 160 158 157 157 158 159 160 159 158 157 155 152 149 146 144 146 149 152 154 155 156 157 159 163 167 171 176 180 186 192 199 207
213 197 191 190 186 182 179 175 174 171 169 166 164 162 162 162 163 163 162 163 165 167 166 165 162 160 160 161 161 161 162 164 163 161 158 156 154 153 153 153 154 155 156 156 155 153 151 148 146 144 145 147 150 152 154 154 153 151 151 152 155 159 162 167 173 180 188 198 209
182 177 175 175 175 173 171 168 166 164 161 159 157 157 157 157 157 157 158 159 159 159 158 157 156 155 155 156 156 155 154 153 152 151 150 148 148 148 149 151 151 151 151 150 149 147 144 143 143 145 147 150 152 153 152 149 146 144 144 146 149 153 158 166 174 186 200 215 229
150 153 155 157 158 157 155 153 152 151 150 148 148 149 150 150 151 151 151 151 151 150 149 149 149 150 151 151 151 149 147 145 144 144 144 144 144 145 146 148 148 147 145 144 143 142 142 142 144 147 150 150 149 147 144 143 142 142 143 146 150 155 164 175 190 208 225 237 247
126 131 133 135 136 136 137 137 136 136 136 138 139 140 141 141 143 144 143 142 142 142 142 142 143 144 145 146 146 145 143 141 140 140 140 141 142 143 144 145 144 143 142 142 143 144 145 145 147 148 148 146 143 141 140 141 142 144 147 152 158 166 181 200 220 235 245 252 258
114 115 115 117 118 121 123 125 124 124 125 127 130 131 132 133 134 135 135 135 135 136 137 137 138 139 140 140 141 141 140 139 138 137 136 137 139 141 142 143 142 142 142 143 145 147 148 149 148 147 145 143 141 141 141 143 146 151 157 164 176 190 209 228 242 251 257 263 270
109 108 108 109 110 111 111 112 114 115 117 120 122 123 124 125 127 128 128 128 128 131 133 133 133 134 135 136 136 136 136 135 135 135 135 136 138 140 142 142 141 140 140 140 143 144 146 147 147 146 145 143 143 143 145 148 154 161 171 185 200 215 228 240 252 262 271 280 290
103 104 105 107 106 103 103 104 106 108 110 113 114 116 118 120 121 122 122 121 123 125 127 127 128 129 130 132 132 131 132 132 134 135 137 138 139 140 140 139 137 135 133 133 133 135 138 141 144 145 146 146 147 148 150 154 163 175 189 202 216 228 239 252 270 289 302 311 318
99 100 102 103 101 100 100 102 102 103 104 107 109 111 113 114 114 115 115 117 118 119 120 121 123 125 127 127 128 130 131 133 135 137 139 139 139 137 134 131 128 127 127 127 128 129 131 135 140 145 147 147 149 152 157 164 173 185 198 212 229 248 272 298 318 330 333 330 320
101 102 101 100 99 99 100 100 100 101 102 104 106 107 108 108 108 109 110 112 113 114 115 117 120 122 124 125 128 131 133 135 137 138 137 135 132 129 126 124 123 124 126 128 128 127 128 129 134 140 145 148 152 158 164 169 175 184 195 230 305 337 350 354 356 355 341 299 255
104 104 103 101 100 100 100 101 102 103 103 104 104 104 104 104 104 105 106 108 110 112 115 118 120 122 125 128 131 133 134 134 135 134 131 127 124 122 122 122 123 125 127 128 127 126 125 126 131 136 140 144 149 155 160 160 152 114 46 24 18 17 18 21 26 53 174 192 194
107 107 106 105 103 102 102 104 106 106 107 106 106 106 105 104 104 105 107 109 112 115 120 123 125 127 130 132 133 133 131 131 130 128 126 124 123 124 124 124 125 126 127 127 126 124 124 125 130 132 134 137 138 135 123 95 64 45 38 36 38 41 51 71 116 151 165 170 173
111 112 112 110 109 109 109 111 112 112 112 112 112 111 110 109 110 112 114 117 120 123 127 130 131 132 133 133 132 131 129 128 127 127 127 127 127 127 127 126 126 127 127 126 123 122 123 124 124 121 115 110 100 84 67 53 45 42 44 50 62 79 101 126 144 152 157 162 166
112 114 115 115 115 116 117 118 118 118 118 117 117 117 116 117 118 120 122 126 129 132 134 135 135 134 133 132 131 129 128 128 128 129 130 130 130 129 128 126 125 126 127 124 121 120 120 117 108 97 86 76 67 58 51 46 44 48 57 74 94 115 131 138 140 137 132 100 336
108 110 111 112 114 116 118 119 119 119 119 118 118 118 120 121 123 125 127 131 133 135 136 136 135 134 133 133 131 130 130 130 131 131 132 132 132 129 126 123 122 123 124 123 121 119 116 105 91 77 68 62 56 51 48 48 52 63 83 106 123 133 135 131 121 95 35 357 342
102 103 104 105 108 110 112 114 115 116 116 116 117 119 121 123 125 127 129 132 133 134 134 134 134 133 133 133 132 132 132 132 133 134 134 134 133 129 125 122 121 122 123 122 121 119 111 96 80 68 62 57 53 52 53 60 74 94 113 126 131 130 122 106 71 30 8 354 347
101 102 102 103 105 107 109 111 113 114 115 115 117 119 121 123 125 128 130 132 132 131 130 130 131 130 130 130 131 132 134 135 136 137 138 138 136 132 127 123 121 121 123 122 122 117 107 89 75 65 60 58 58 60 68 82 101 117 127 131 127 116 96 68 43 25 13 4 355
104 105 105 105 106 107 109 112 113 113 114 115 117 119 120 122 124 127 131 132 130 129 128 129 129 129 130 131 132 134 137 139 140 140 141 142 140 134 129 124 121 121 121 121 121 116 105 87 77 68 64 64 67 73 84 100 114 125 130 128 118 101 76 55 40 29 22 14 6
107 109 109 109 109 110 112 113 112 112 112 114 116 118 120 122 123 125 128 130 129 127 127 129 129 130 132 134 135 137 139 141 142 141 141 141 138 133 128 124 122 121 120 120 120 117 107 94 85 77 72 71 74 78 88 101 114 123 125 119 107 87 65 48 37 28 22 16 11
109 111 112 112 112 112 112 111 110 110 111 112 114 117 119 120 121 123 125 128 128 128 128 129 130 132 134 136 136 135 135 134 133 132 131 130 129 126 124 124 124 124 123 124 124 121 117 109 99 85 76 73 72 73 78 90 103 111 110 101 87 69 53 38 28 20 13 8 4
112 114 115 114 114 112 111 109 109 110 111 113 114 115 117 118 119 122 125 127 128 129 129 130 131 132 133 132 131 129 127 124 121 120 120 122 123 123 123 123 125 126 129 131 131 129 127 124 112 92 75 70 67 66 68 76 87 93 91 82 68 54 40 28 17 10 3 357 351
115 116 115 114 114 113 112 111 110 112 113 114 114 115 117 120 122 124 126 127 128 129 130 130 131 130 129 127 125 123 121 120 119 119 121 124 125 126 125 124 124 126 130 135 137 135 133 132 121 98 75 69 62 58 59 64 74 81 79 70 56 43 30 20 10 2 355 349 342
Height
739 740 740 741 742 743 744 744 745 746 747 748 749 749 750 751 752 752 753 753 753 754 754 754 755 756 757 757 759 764 768 771 772 773 774 775 775 776 776 777 778 779 780 780 781 781 783 786 789 791 792 792 794 796 799 801 803 804 804 805 804 804 805 807 809 811 813 814 814
738 739 739 740 740 741 742 743 744 745 746 746 747 747 748 749 749 750 751 751 752 752 753 754 755 756 757 757 758 760 763 766 768 769 769 771 772 773 774 775 776 778 779 780 781 782 784 786 788 789 790 791 792 794 797 800 802 803 804 804 804 804 805 807 809 811 812 813 814
736 737 738 739 739 740 741 742 742 743 744 744 745 745 746 747 748 749 749 750 751 752 753 753 754 755 756 757 759 760 763 765 766 766 767 767 768 769 770 773 775 777 779 780 782 784 785 786 787 788 788 789 791 793 795 797 799 800 801 802 803 804 806 808 809 811 812 812 812
735 735 736 737 738 738 739 739 740 741 741 742 743 744 745 746 747 748 749 749 750 751 752 753 754 754 756 757 759 760 762 763 764 765 765 766 766 766 767 769 772 775 778 780 782 783 784 786 786 787 787 788 789 790 792 794 796 798 799 801 803 804 806 808 809 810 811 811 811
734 734 734 735 735 736 737 737 738 739 739 741 742 743 744 744 746 747 748 749 749 750 751 752 753 754 755 756 758 759 761 762 763 764 764 764 764 765 765 767 769 772 775 778 780 782 783 784 784 785 786 787 788 789 790 792 794 795 798 800 802 805 807 808 809 809 810 810 810
733 733 732 733 733 734 735 736 736 737 738 739 740 741 742 743 744 745 746 747 748 749 750 751 752 753 754 755 757 758 759 760 761 762 763 763 764 764 764 765 767 769 772 775 778 780 781 782 782 783 784 786 787 789 789 791 792 794 797 799 802 805 806 808 808 809 809 809 809
733 732 731 731 731 732 733 734 734 735 737 738 739 739 740 741 742 744 744 746 747 748 749 751 752 752 753 754 755 756 757 758 759 760 761 762 763 764 764 765 767 769 771 773 775 777 779 780 780 781 782 784 786 787 789 789 790 793 796 799 802 804 806 806 807 807 808 808 808
732 732 731 730 730 730 730 731 732 734 735 736 737 737 738 739 741 742 744 745 746 747 748 749 750 751 752 753 754 755 756 757 758 759 760 761 762 763 764 766 768 769 771 772 774 775 777 778 779 779 780 782 784 786 787 788 789 792 795 799 802 804 805 805 806 806 807 807 807
730 730 730 730 729 729 729 730 731 732 733 734 735 736 737 739 740 741 742 743 744 746 747 749 749 750 751 752 753 754 754 755 756 758 759 760 761 763 764 766 769 770 772 773 773 774 775 776 777 778 779 779 782 784 786 788 789 792 794 798 801 803 804 804 805 805 806 806 806
729 729 729 729 729 729 729 729 730 731 732 733 734 735 736 738 739 740 741 742 743 745 746 747 748 749 750 751 752 753 754 755 756 757 758 759 760 762 764 765 768 769 771 772 773 774 774 775 777 777 778 779 781 783 785 788 789 792 794 797 799 801 803 803 804 804 805 805 806
728 728 728 728 728 728 729 729 730 731 731 732 733 735 736 738 738 739 740 741 742 744 745 746 747 748 749 750 751 752 753 754 755 756 758 759 760 762 763 765 767 768 770 771 772 773 774 775 776 777 778 779 781 784 786 788 790 791 794 796 799 801 802 802 803 803 804 804 806
728 727 727 727 728 728 728 729 729 730 731 732 733 735 736 737 737 738 739 740 741 743 744 745 746 748 749 749 751 752 753 754 755 756 757 759 760 762 763 764 766 768 769 770 771 772 773 774 775 777 778 780 782 784 786 789 790 792 794 795 798 800 801 801 802 802 803 804 805
727 727 727 727 727 727 728 728 729 730 731 732 733 734 735 736 737 738 739 739 740 742 743 744 746 747 748 749 750 751 752 753 754 756 758 759 760 761 763 764 765 767 768 769 770 771 772 774 775 777 779 780 783 785 787 789 790 792 794 795 798 799 800 800 801 801 802 804 805
727 727 726 726 726 726 727 728 729 729 731 732 733 734 734 735 736 737 738 739 740 741 743 744 746 747 748 749 749 750 752 753 755 756 758 759 760 761 762 763 765 766 768 769 769 770 772 774 776 777 779 781 783 785 787 789 791 793 794 795 797 799 799 799 800 801 802 803 804
727 726 726 726 726 726 727 728 729 729 730 731 732 733 734 735 735 736 737 739 739 741 742 744 745 746 748 749 749 750 752 754 755 756 758 759 760 761 762 763 764 766 767 768 770 771 773 775 776 778 779 781 783 785 788 790 792 793 794 796 797 798 799 799 799 800 801 803 804
727 726 726 725 726 726 727 728 729 729 730 731 732 733 734 734 735 736 737 739 739 741 742 743 744 746 747 749 749 751 752 754 755 756 757 759 760 761 762 763 764 765 767 769 770 772 774 775 777 779 780 782 784 786 788 790 792 793 794 796 797 797 798 798 799 800 801 803 804
727 727 726 726 726 727 728 729 729 730 730 731 732 732 733 734 735 736 738 739 739 741 742 743 744 745 747 748 750 751 752 754 755 756 757 758 759 761 762 763 764 765 767 769 770 772 774 776 778 779 781 783 784 786 788 790 791 793 794 795 796 797 797 798 799 800 801 803 804
728 728 728 728 728 728 729 729 729 730 730 731 732 732 733 734 735 736 738 739 739 740 742 743 744 745 747 748 750 751 752 754 755 756 757 758 759 760 761 762 764 766 768 769 771 773 774 777 779 780 782 783 785 787 789 790 791 792 793 794 795 796 797 799 799 801 802 803 804
728 729 729 729 729 729 729 730 730 730 731 731 732 733 734 734 735 736 738 739 740 741 742 743 745 746 747 748 750 751 753 754 755 756 757 759 759 760 761 763 764 766 769 770 772 774 776 777 779 781 782 784 785 787 789 790 791 792 793 794 795 797 798 799 800 800 801 802 803
728 729 729 729 730 730 730 730 730 731 731 732 733 733 734 735 736 737 738 739 740 741 743 744 745 746 748 749 751 752 754 755 756 757 758 759 760 762 763 764 765 767 769 772 774 775 777 778 779 781 783 784 786 788 789 790 791 792 793 794 795 797 798 799 799 800 801 802 803
729 729 729 730 730 731 731 731 731 732 732 733 733 734 734 735 736 737 739 740 741 742 743 744 746 747 749 750 751 753 754 755 756 758 759 760 762 763 764 765 766 769 771 773 774 776 777 779 780 781 783 785 787 788 789 790 791 792 793 794 795 796 798 798 799 800 801 802 802
729 730 730 730 731 731 732 732 732 733 733 734 734 735 735 736 737 738 739 740 742 743 744 745 747 748 749 750 752 753 754 756 757 759 760 762 763 764 765 767 768 770 772 774 775 777 778 779 781 782 784 786 788 789 789 790 790 791 793 794 795 796 797 798 799 800 800 801 802
730 731 731 731 732 732 733 733 734 734 735 735 736 736 737 737 738 739 740 741 743 744 745 747 748 749 750 751 752 754 755 756 758 759 761 762 764 765 767 768 770 771 773 774 776 777 779 780 782 784 785 786 788 788 789 789 790 791 793 794 795 796 797 798 799 799 800 801 802
731 732 732 732 733 733 734 734 735 735 736 737 737 738 738 739 739 740 741 743 744 745 746 748 749 750 751 752 753 754 755 757 759 760 762 764 765 766 768 770 771 773 774 776 777 779 780 781 783 784 785 786 787 788 789 789 790 791 793 794 795 796 797 798 798 799 800 801 801
732 733 733 734 734 734 735 735 736 737 738 738 739 739 740 741 741 742 743 744 745 746 748 749 750 751 752 753 754 756 757 758 759 761 763 765 767 768 769 771 773 774 776 777 779 780 781 782 783 784 785 786 787 788 789 789 791 792 793 794 795 796 797 797 798 799 799 800 801
733 733 734 734 735 735 736 737 738 738 739 740 740 741 742 742 743 744 744 745 746 748 749 750 751 752 754 754 756 757 759 760 761 763 765 767 768 770 771 772 774 776 777 779 780 781 783 784 784 785 785 786 787 788 789 790 791 792 793 794 795 795 796 797 798 799 799 799 800
734 734 734 735 736 737 738 738 739 740 740 741 742 743 743 744 745 745 746 747 748 749 750 752 753 754 755 756 758 759 760 762 764 765 767 768 770 771 772 774 775 777 779 780 781 783 784 785 785 786 786 786 787 788 789 790 791 792 793 794 794 795 796 797 797 798 798 799 799
735 735 736 736 737 738 739 739 740 741 742 743 743 744 745 746 746 747 748 749 750 751 753 754 755 756 757 759 760 761 763 764 766 767 769 770 771 772 774 775 777 778 780 781 782 784 784 785 786 786 786 787 788 789 789 790 791 792 793 794 794 795 796 796 797 797 798 798 799
736 737 737 737 738 739 740 741 742 743 743 744 745 745 746 747 748 749 750 751 753 754 755 756 757 758 759 761 762 764 765 766 767 769 770 771 773 774 775 777 778 779 781 782 783 784 785 786 786 786 787 788 788 789 789 790 791 792 793 794 794 795 795 796 796 797 797 798 799
738 738 738 739 739 740 741 742 743 744 744 745 746 747 748 749 750 752 753 754 755 756 757 758 759 760 762 763 764 765 767 768 769 770 771 773 774 776 777 778 779 780 782 783 784 785 785 786 786 787 787 788 789 789 790 790 791 792 793 793 794 794 795 796 796 797 798 798 798
739 739 739 739 740 741 742 743 744 745 745 746 747 748 749 751 752 754 755 756 757 759 759 760 761 762 764 765 765 767 768 769 771 772 773 774 776 777 778 779 780 781 783 784 784 785 786 786 787 787 788 788 789 789 790 790 791 792 792 793 794 794 795 796 796 797 797 798 798
740 740 740 741 741 743 744 744 745 746 746 747 748 749 750 752 753 755 756 758 759 760 762 762 763 764 765 766 767 768 769 770 772 773 774 775 776 778 779 780 781 782 783 784 785 785 786 786 787 787 788 788 789 789 790 790 791 792 792 793 794 794 795 796 796 797 797 797 798
743 742 742 742 743 743 744 745 746 746 747 748 749 750 751 753 754 756 757 759 760 761 763 764 764 765 766 767 768 769 770 772 773 774 775 776 777 778 779 780 782 783 784 784 785 785 786 786 787 787 788 788 789 789 789 790 791 792 792 793 794 795 795 796 796 797 797 797 797
745 745 744 744 744 745 745 746 747 747 748 749 750 751 752 754 755 757 759 760 761 763 764 765 766 767 767 768 769 770 772 773 774 775 776 777 778 779 779 781 782 783 784 784 785 785 786 786 787 787 788 788 789 789 790 790 791 792 793 794 794 795 795 796 796 797 797 797 797
747 747 747 747 747 748 748 748 749 749 750 750 752 753 754 755 757 758 759 761 762 764 765 766 767 768 769 770 771 772 773 774 775 776 777 778 778 779 780 781 783 784 784 785 785 785 786 787 787 788 788 788 789 789 790 791 791 792 793 794 794 795 795 796 796 797 797 797 797
749 749 749 749 750 750 750 751 751 751 752 753 754 755 756 757 758 760 761 763 764 765 767 768 769 770 771 772 773 774 774 775 776 777 778 779 779 780 781 782 783 784 785 785 785 786 786 787 787 788 788 789 789 790 790 791 792 793 794 794 795 795 796 796 796 797 797 797 797
751 751 751 751 752 752 753 753 754 754 754 755 756 756 758 759 760 762 763 764 765 766 768 769 770 771 772 773 774 775 776 777 778 779 780 780 781 782 782 783 784 785 785 786 786 786 787 787 788 788 789 789 790 790 791 792 793 793 794 794 795 795 796 796 796 797 797 797 797
752 753 753 753 754 754 755 755 755 756 756 757 757 758 759 761 762 764 765 765 766 767 769 770 771 773 774 775 776 777 778 779 780 780 781 782 782 783 783 784 784 785 786 786 787 787 787 788 788 789 789 790 790 791 792 792 793 794 794 794 795 795 796 796 796 796 796 796 796
754 754 755 755 756 756 757 757 757 758 758 758 759 760 762 763 764 765 766 767 768 769 770 772 773 774 776 777 778 779 780 781 781 782 782 783 784 784 784 785 785 786 787 787 788 788 788 789 789 789 790 790 791 791 792 792 793 794 794 795 795 795 796 796 796 796 796 796 796
756 756 757 757 757 758 758 758 759 759 759 760 761 762 764 764 765 767 768 769 770 771 772 774 775 776 777 778 779 780 781 781 782 783 784 784 784 785 785 786 786 787 787 788 789 789 789 789 790 790 790 791 791 792 792 793 793 794 794 794 795 795 795 795 796 796 796 796 796
758 758 758 758 759 759 759 759 760 761 761 762 763 764 765 766 767 768 769 771 772 773 774 775 776 777 778 779 780 780 781 782 783 784 784 785 785 786 786 787 787 787 788 789 789 789 790 790 790 790 791 791 792 792 792 793 793 794 794 794 795 795 795 795 795 796 796 796 796